TimeEDT,TemperatureF,Dew PointF,Humidity,Sea Level PressureIn,VisibilityMPH,Wind Direction,Wind SpeedMPH,Gust SpeedMPH,PrecipitationIn,Events,Conditions,WindDirDegrees,DateUTC
12:54 AM,57.9,42.1,56,30.16,10.0,NNW,6.9,-,N/A,,Clear,340,2013-05-25 04:54:00
1:54 AM,55.9,43.0,62,30.17,10.0,NNW,5.8,-,N/A,,Clear,340,2013-05-25 05:54:00
2:54 AM,53.1,44.1,71,30.17,10.0,NNW,4.6,-,N/A,,Clear,330,2013-05-25 06:54:00
3:54 AM,53.1,43.0,69,30.17,10.0,North,9.2,-,N/A,,Clear,10,2013-05-25 07:54:00
4:54 AM,52.0,39.0,61,30.21,10.0,North,10.4,20.7,N/A,,Clear,10,2013-05-25 08:54:00
5:54 AM,51.1,37.9,61,30.22,10.0,North,9.2,-,N/A,,Clear,10,2013-05-25 09:54:00
6:54 AM,51.1,36.0,56,30.25,10.0,NNE,10.4,18.4,N/A,,Clear,20,2013-05-25 10:54:00
7:54 AM,53.1,37.0,55,30.25,10.0,NNE,10.4,17.3,N/A,,Clear,20,2013-05-25 11:54:00
8:54 AM,55.0,37.0,51,30.26,10.0,North,10.4,-,N/A,,Clear,10,2013-05-25 12:54:00
9:54 AM,57.9,37.0,46,30.26,10.0,North,8.1,-,N/A,,Clear,360,2013-05-25 13:54:00
10:54 AM,62.1,37.0,39,30.26,10.0,WNW,11.5,17.3,N/A,,Clear,290,2013-05-25 14:54:00
11:54 AM,64.0,37.0,37,30.26,10.0,NW,15.0,-,N/A,,Clear,310,2013-05-25 15:54:00
12:54 PM,66.9,39.0,36,30.23,10.0,NW,11.5,-,N/A,,Clear,320,2013-05-25 16:54:00
1:54 PM,69.1,37.9,32,30.21,10.0,WNW,10.4,-,N/A,,Clear,290,2013-05-25 17:54:00
2:54 PM,71.1,39.9,32,30.18,10.0,West,11.5,-,N/A,,Clear,280,2013-05-25 18:54:00
3:54 PM,72.0,39.0,30,30.16,10.0,West,10.4,20.7,N/A,,Clear,280,2013-05-25 19:54:00
4:54 PM,72.0,39.0,30,30.15,10.0,NW,9.2,-,N/A,,Clear,310,2013-05-25 20:54:00
5:54 PM,73.0,39.9,30,30.15,10.0,NNW,8.1,-,N/A,,Clear,330,2013-05-25 21:54:00
6:54 PM,71.1,39.9,32,30.16,10.0,NNW,10.4,-,N/A,,Clear,330,2013-05-25 22:54:00
7:54 PM,66.9,43.0,42,30.18,10.0,Calm,Calm,-,N/A,,Clear,0,2013-05-25 23:54:00
8:54 PM,60.1,50.0,69,30.18,10.0,SSW,4.6,-,N/A,,Clear,200,2013-05-26 00:54:00
9:54 PM,57.9,50.0,75,30.19,10.0,Calm,Calm,-,N/A,,Clear,0,2013-05-26 01:54:00
10:54 PM,55.0,48.9,80,30.20,10.0,Calm,Calm,-,N/A,,Clear,0,2013-05-26 02:54:00
11:54 PM,54.0,48.0,80,30.19,10.0,Calm,Calm,-,N/A,,Clear,0,2013-05-26 03:54:00